Skip Page Navigation
NASA JPL Caltech
NASA Logo - Jet Propulsion Laboratory + View the NASA Portal
+ Center for Near-Earth Object Studies
JPL Home Earth Solar System Stars & Galaxies Technology
JPL Solar System Dynamics
BODIES ORBITS EPHEMERIDES TOOLS PHYSICAL DATA DISCOVERY FAQ SITE MAP
JPL Small-Body Database Browser
Search: [ help ]  
108419 (2001 KU35)
Classification: Main-belt Asteroid          SPK-ID: 2108419
Ephemeris | Orbit Diagram | Orbital Elements | Mission Design | Physical Parameters | Discovery Circumstances ]

[ show orbit diagram ]
Orbital Elements at Epoch 2459000.5 (2020-May-31.0) TDB
Reference: JPL 17 (heliocentric ecliptic J2000)
 Element Value Uncertainty (1-sigma)   Units 
e .04734713846885345 5.5337e-08  
a 2.70576711804465 2.8957e-08 au
q 2.57765678764212 1.5427e-07 au
i 14.94617711303732 5.9414e-06 deg
node 90.19596256617076 2.2099e-05 deg
peri 237.9651221417842 6.2467e-05 deg
M 24.20087934337687 5.8842e-05 deg
tp 2458891.214462002975
(2020-Feb-11.71446200)
0.00026561 TDB
period 1625.676204600235
4.45
2.6097e-05
7.145e-08
d
yr
n .2214463119908472 3.5549e-09 deg/d
Q 2.833877448447181 3.0328e-08 au
  Orbit Determination Parameters
   # obs. used (total)      432  
   data-arc span      6232 days (17.06 yr)  
   first obs. used      2001-05-18  
   last obs. used      2018-06-10  
   planetary ephem.      DE431  
   SB-pert. ephem.      SB431-N16  
   condition code      0  
   norm. resid. RMS      .58736  
   source      ORB  
   producer      Otto Matic  
   solution date      2018-Oct-04 04:15:38  

Additional Information
 Earth MOID = 1.58957 au 
 Jupiter MOID = 2.3513 au 
 T_jup = 3.315 
[ hide covariance matrix ]
Orbital Elements at Epoch 2456692.5 (2014-Feb-04.0) TDB
Reference: JPL 17 (heliocentric ecliptic J2000)
 Element Value Uncertainty (1-sigma)   Units 
e .04910500517811867 5.52e-08  
q 2.572925703430004 1.5432e-07 au
tp 2457272.628238004101
(2015-Sep-07.12823800)
0.00025658 TDB
node 90.23537461865777 2.212e-05 deg
peri 239.8047570599349 6.0627e-05 deg
i 14.93999469930831 5.9379e-06 deg
  Orbit Determination Parameters
   # obs. used (total)      432  
   data-arc span      6232 days (17.06 yr)  
   first obs. used      2001-05-18  
   last obs. used      2018-06-10  
   planetary ephem.      DE431  
   SB-pert. ephem.      SB431-N16  
   condition code      0  
   norm. resid. RMS      .58736  
   source      ORB  
   producer      Otto Matic  
   solution date      2018-Oct-04 04:15:38  

Additional Information
 Jupiter MOID = 2.3513 au 
 T_jup = 3.315 
Orbit Covariance (6×6)
  e q tp node peri i
e 3.04707573246704E-15 -8.383100524831806E-15 1.825061999398526E-13 1.56898341438818E-14 5.435473238660592E-14 -9.196832611970724E-16
q -8.383100524831806E-15 2.381368468764278E-14 -8.033461075778009E-13 -4.262493861079699E-14 -2.752686588637696E-13 4.24004013717281E-15
tp 1.825061999398526E-13 -8.033461075778009E-13 6.583491619379907E-8 4.799901677738321E-11 1.450789830737384E-8 6.26925190585351E-12
node 1.56898341438818E-14 -4.262493861079699E-14 4.799901677738321E-11 4.892850124860007E-10 -4.617774251655529E-10 1.101398924899998E-11
peri 5.435473238660592E-14 -2.752686588637696E-13 1.450789830737384E-8 -4.617774251655529E-10 3.675658935861067E-9 -9.434229776172423E-12
i -9.196832611970724E-16 4.24004013717281E-15 6.26925190585351E-12 1.101398924899998E-11 -9.434229776172423E-12 3.525844562100101E-11

Ephemeris | Orbit Diagram | Orbital Elements | Mission Design | Physical Parameters | Discovery Circumstances ]

Physical Parameter Table
Parameter Symbol Value Units Sigma Reference Notes
absolute magnitude H 15.2   n/a MPO436520  

108419 (2001 KU35)          Discovered 2001-May-18 by LINEAR at Socorro
Reference: 20051019/Numbers.arcLast Updated: 2005-10-26
Ephemeris | Orbit Diagram | Orbital Elements | Mission Design | Physical Parameters | Discovery Circumstances ]
ABOUT SSD CREDITS/AWARDS PRIVACY/COPYRIGHT GLOSSARY LINKS
FirstGov 2020-Aug-14 05:37 UT
(server date/time)  
NASA Home Page
Site Manager:   Ryan S. Park
Webmaster  Alan B. Chamberlin